Location: Archemont
(49.1579°N, 1.7598°E)
Time: 13:14:35
(UTC+00:00)

S-56A Canister/Altair - Pass Details

Date: 18 April 2024
Orbit: 638 x 2488 km, 38.9° (Epoch: 22 May)

Event Time Altitude Azimuth Distance (km) Brightness Sun altitude
Rises 15:58:36 0° 194° (SSW) 3,179 11.1 26.8°
Reaches altitude 10° 16:02:11 10° 166° (SSE) 2,489 10.2 26.3°
Maximum altitude 16:04:48 13° 139° (SE) 2,463 10.0 25.9°
Drops below altitude 10° 16:07:47 10° 113° (ESE) 2,934 10.1 25.4°
Sets 16:12:51 0° 89° (E) 4,339 10.8 24.6°
